Regional Weather Roundup
Issued by NWS

Home | Current Version | Previous Version | Graphics & Text | Print | Product List | Glossary On
Versions: 1 2 3 4 5 6 7 8 9 10 11 12 13 14 15 16 17 18 19 20 21 22 23 24 25 26 27 28 29 30 31 32 33 34 35 36 37 38 39 40 41 42 43 44 45 46 47 48 49 50
000
ASUS43 KOAX 041202
RWRNE

WEATHER ROUNDUP FOR NEBRASKA
NATIONAL WEATHER SERVICE OMAHA NE
700 AM CDT FRI SEP 04 2015

NOTES: SATELLITE DATA IS BEING USED TO AUGMENT CLOUD COVER ABOVE
       12000 FEET.
       "FAIR" INDICATES FEW OR NO CLOUDS BELOW 12,000 FEET WITH NO
       SIGNIFICANT WEATHER AND/OR OBSTRUCTIONS TO VISIBILITY.

  * THESE STATIONS DO NOT REPORT WEATHER SUCH AS RAIN...SNOW OR FOG.

NEZ001>004-019>022-054>056-041300-
NEBRASKA PANHANDLE

CITY           SKY/WX    TMP DP  RH WIND       PRES   REMARKS
SCOTTSBLUFF    CLEAR     54  52  93 E5        29.88S
6HR MIN TEMP:  54; 6HR MAX TEMP:  66;

ALLIANCE       CLEAR     55  51  86 CALM      29.87S
6HR MIN TEMP:  54; 6HR MAX TEMP:  67;

CHADRON        CLEAR     58  51  78 E3        29.82R
6HR MIN TEMP:  58; 6HR MAX TEMP:  74; 6HR PCP: TRACE;

KIMBALL        CLEAR     50  47  88 W6        29.94R
SIDNEY         CLEAR     52  50  93 W7        29.92R
6HR MIN TEMP:  51; 6HR MAX TEMP:  59;

$$

NEZ057>060-069>072-079>082-041300-
SOUTHWEST NEBRASKA

CITY           SKY/WX    TMP DP  RH WIND       PRES   REMARKS
NORTH PLATTE   PTCLDY    63  60  90 NW5       29.82R
6HR MIN TEMP:  62; 6HR MAX TEMP:  70; 6HR PCP: TRACE;

IMPERIAL       CLEAR     62  57  83 NW9       29.84R
6HR MIN TEMP:  62; 6HR MAX TEMP:  69;

LEXINGTON      CLEAR     73  61  66 SE13      29.79S
MCCOOK         PTCLDY    68  57  68 SE7       29.79R
6HR MIN TEMP:  68; 6HR MAX TEMP:  82;

$$

NEZ005>010-023>029-035>040-094-041300-
NORTH CENTRAL NEBRASKA

CITY           SKY/WX    TMP DP  RH WIND       PRES   REMARKS
VALENTINE      MOCLDY    65  62  90 S7        29.80R
6HR MIN TEMP:  64; 6HR MAX TEMP:  77; 6HR PCP:  0.13;

AINSWORTH      CLOUDY    69  63  81 S5        29.82R
BROKEN BOW     MOCLDY    70  62  76 SE7       29.81R
6HR MIN TEMP:  70; 6HR MAX TEMP:  79; 6HR PCP: TRACE;

ORD            CLOUDY    74  62  66 SE13G22   29.80R
6HR MIN TEMP:  70; 6HR MAX TEMP:  76; 6HR PCP: TRACE;

$$

NEZ041-046>049-061>064-073>077-083>087-041300-
SOUTH CENTRAL NEBRASKA

CITY           SKY/WX    TMP DP  RH WIND       PRES   REMARKS
GRAND ISLAND   CLOUDY    71  66  84 SE14      29.85R
6HR MIN TEMP:  71; 6HR MAX TEMP:  77; 6HR PCP:  0.40;

AURORA         LGT RAIN  73  67  79 S13       29.86R
HASTINGS       MOCLDY    75  63  66 SE16      29.85R
6HR MIN TEMP:  72; 6HR MAX TEMP:  82; 6HR PCP:  0.07;

KEARNEY *      MOCLDY    70  59  68 SE13      29.82R
YORK           CLOUDY    72  68  88 E8        29.88S
$$

NEZ011>018-030>034-042>045-041300-
NORTHEAST NEBRASKA

CITY           SKY/WX    TMP DP  RH WIND       PRES   REMARKS
NORFOLK        LGT RAIN  76  66  71 S22G33    29.85R
6HR MIN TEMP:  74; 6HR MAX TEMP:  78; 6HR PCP: TRACE;

BLAIR          MOCLDY    72  67  82 S7        29.92R
COLUMBUS *     CLOUDY    72  63  73 SE7       29.89S
FREMONT        CLOUDY    73  68  84 SE7       29.90F
TEKAMAH        CLOUDY    71  69  93 SE6       29.89R
6HR MIN TEMP:  71; 6HR MAX TEMP:  73;

$$

NEZ050>053-065>068-078-088>093-041300-
SOUTHEAST NEBRASKA

CITY           SKY/WX    TMP DP  RH WIND       PRES   REMARKS
LINCOLN        CLOUDY    75  67  76 S3        29.90R
6HR MIN TEMP:  75; 6HR MAX TEMP:  79;

OMAHA EPPLEY   MOCLDY    74  68  81 S10       29.91R
6HR MIN TEMP:  74; 6HR MAX TEMP:  79;

FALLS CITY     CLEAR     72  67  84 S7        29.92R
6HR MIN TEMP:  71; 6HR MAX TEMP:  75;

PLATTSMOUTH    PTCLDY    70  67  88 SE8       29.91R
$$

NEZ044-045-051>053-067-041300-
OMAHA AREA

CITY           SKY/WX    TMP DP  RH WIND       PRES   REMARKS
OMAHA EPPLEY   MOCLDY    74  68  81 S10       29.91R
6HR MIN TEMP:  74; 6HR MAX TEMP:  79;

BLAIR          MOCLDY    72  67  82 S7        29.92R
FREMONT        CLOUDY    73  68  84 SE7       29.90F
OFFUTT AFB     MOCLDY    72  68  88 E6        29.90R
PLATTSMOUTH    PTCLDY    70  67  88 SE8       29.91R
$$



USA.gov is the U.S. government's official web portal to all federal, state and local government web resources and services.